Location: LDNL
(36.4545°S, 141.6685°E)
Time: 13:03:22
(UTC+11:00)

Courier 1B Rocket - Pass Details

Date: 03 February 2023
Orbit: 920 x 1202 km, 28.2° (Epoch: 25 March)

Event Time Altitude Azimuth Distance (km) Brightness Sun altitude
Rises 06:13:11 0° 304° (WNW) 4,052 - -7.8°
Exits shadow 06:15:34 - 309° (NW) 3,315 7.1 -7.4°
Reaches altitude 10° 06:16:14 10° 311° (NW) 3,113 7.0 -7.3°
Maximum altitude 06:23:13 37° 15° (NNE) 1,795 6.3 -6.0°
Drops below altitude 10° 06:30:13 10° 78° (ENE) 3,123 8.6 -4.7°
Sets 06:33:16 0° 86° (E) 4,067 9.5 -4.2°
